Tracking 18844 objects as of 21-Nov-2017
HD Live streaming from Space Station
objects crossing your sky now

FENGYUN 1C DEB

Track FENGYUN 1C DEB now!
10-day predictions


NORAD ID: 29805
Int'l Code: 1999-025CX
Perigee: 860.7 km
Apogee: 1,139.3 km
Inclination: 99.7 °
Period: 105.0 minutes
Semi major axis: 7370 km
RCS: 0.0153 m2 (small)
Launch date: May 10, 1999
Source: People's Republic of China (PRC)
Launch site: Taiyaun Space Center, China (TSC)

Note: This is SATELLITE DEBRIS
aabbcc
Your satellite tracking list
Your tracking list is empty




NASA's NSSDC Master Catalog

Two Line Element Set (TLE):
1 29805U 99025CX  17325.22587073 -.00000001  00000-0  45473-4 0  9990
2 29805  99.7248 318.9532 0188978 278.7075 143.4635 13.71871389543469
Source of the keplerian elements: AFSPC